[[{"header":{"parameterUnit":"m.s-1","parameterCategory":2,"la1":30.2991,"la2":30.254,"lo1":-89.0895,"lo2":-89.0444,"dy":0.0017,"dx":0.0017,"nx":28,"ny":28,"refTime":"2025-06-09T03:00:00:Z","depth":"0","parameterNumber":2,"parameterNumberName":"U-component_of_CURRENTS"},"data":[0,0,0,0,0,0,0,0,0,0,0,0,0,0,0,0,0,0,0,0,0,0,0,0,0,0,0,0,0,0,0,0,0,0,0,0,0,0,0,0,0,0,0,0,0,0,0,0,0,0,0,0,0,0,0,0,0,0,0.09,0.0899,0,0.0799,0.0797,0.0796,0.0778,0.0779,0.0781,0.0782,0.068,0.0676,0.0672,0,0,0,0,0,0,0,0,0,0,0,0,0,0.0972,0.0971,0.09,0.0899,0.0898,0.0799,0.0797,0.0795,0.0778,0.0779,0.0781,0.0783,0.0681,0.0677,0.0672,0,0,0,0,0,0,0,0,0,0,0,0,0,0.0908,0.0971,0.09,0.0881,0.0879,0.08,0.0797,0.0795,0.0778,0.0779,0.0781,0.0783,0.0683,0.0677,0.0671,0.0595,0,0,0.0653,0.0651,0,0,0,0,0,0,0,0,0.0912,0.0905,0.0885,0.0882,0.088,0.0808,0.0786,0.073,0.0777,0.0811,0.0782,0.0784,0.0724,0.0715,0.0685,0.0591,0.0586,0.0653,0.0649,0.0646,0.0645,0,0,0,0,0,0,0,0.0917,0.0909,0.0855,0.0884,0.0881,0.0842,0.0836,0.0774,0.0754,0.0808,0.0808,0.0804,0.0723,0.069,0.0682,0.0585,0.0653,0.0648,0.0644,0.0642,0.0565,0.0567,0,0,0,0,0,0,0.0942,0.0913,0.0858,0.0852,0.0907,0.084,0.0833,0.0825,0.0754,0.0747,0.0802,0.0803,0.0699,0.0689,0.0679,0.073,0.0647,0.0641,0.0638,0.0564,0.0566,0.0567,0,0,0,0,0,0,0.0944,0.0938,0.0862,0.0885,0.0873,0.0838,0.0828,0.0822,0.0795,0.0751,0.0743,0.0785,0.07,0.0687,0.0635,0.0721,0.0638,0.0633,0.0562,0.0564,0.0566,0.0739,0,0,0,0,0,0,0.0946,0.0939,0.0933,0.0886,0.0873,0.0818,0.0827,0.0818,0.0792,0.0793,0.0733,0.0725,0.0701,0.0644,0.0629,0.0711,0.0628,0.056,0.0563,0.0566,0.0732,0.0747,0.076,0,0,0,0,0,0.0949,0.0921,0.0933,0.0926,0.0869,0.0818,0.0806,0.0784,0.079,0.0769,0.074,0.0727,0.0654,0.0637,0.062,0.0704,0.0559,0.0562,0.0565,0.0725,0.0744,0.076,0,0,0,0,0,0,0.0967,0.0916,0.0928,0.0894,0.0869,0.0817,0.0792,0.078,0.0735,0.0742,0.0704,0.0693,0.0694,0.0648,0.0632,0.069,0.062,0.062,0.0748,0.0765,0.0779,0.0901,0.0623,0,0,0,0,0,0.0967,0.092,0.0897,0.0872,0.0862,0.083,0.0805,0.0795,0.0756,0.0738,0.0705,0.0685,0.0689,0.0684,0.0651,0.0647,0.0707,0.07,0.0715,0.0728,0.0814,0.0968,0.1008,0.0578,0.0578,0.0578,0,0,0.0966,0.0935,0.091,0.087,0.0849,0.0859,0.0818,0.0784,0.0821,0.0732,0.0747,0.0709,0.069,0.0715,0.0716,0.0693,0.0869,0.0732,0.0744,0.0825,0.0977,0.102,0.1058,0.0581,0.058,0.058,0,0,0.095,0.0921,0.0892,0.0879,0.0855,0.0851,0.0849,0.0808,0.0819,0.0806,0.0796,0.0824,0.0756,0.0821,0.0837,0.0902,0.0927,0.087,0.1061,0.1208,0.1247,0.1283,0.1379,0.1422,0.0895,0.0895,0.0896,0,0.0958,0.0955,0.0878,0.0878,0.0907,0.0864,0.0905,0.0895,0.085,0.0913,0.0835,0.0899,0.0849,0.1006,0.1035,0.0953,0.1012,0.0999,0.1237,0.1274,0.1307,0.1398,0.1443,0.0904,0.0903,0.0902,0.0901,0,0.0954,0.0968,0.0954,0.0965,0.0965,0.0982,0.0995,0.1019,0.1027,0.1057,0.1164,0.1112,0.119,0.1168,0.1117,0.1346,0.1299,0.1228,0.1214,0.1363,0.1445,0.149,0.0917,0.0913,0.0911,0.0909,0,0,0.0991,0.0958,0.0974,0.1028,0.1036,0.105,0.1135,0.1243,0.1359,0.1339,0.1511,0.1531,0.1537,0.1559,0.1516,0.1639,0.1877,0.1548,0.1552,0.1683,0.2191,0.2173,0.2218,0.185,0.186,0.1867,0.2141,0,0.1058,0.109,0.1065,0.1171,0.1226,0.1249,0.1339,0.1426,0.1489,0.1617,0.1682,0.1768,0.1676,0.1711,0.1842,0.1844,0.2008,0.1809,0.1996,0.2003,0.2003,0.2276,0.2184,0.2425,0.2184,0.2192,0.2197,0,0.1151,0.1156,0.1247,0.1345,0.1374,0.143,0.164,0.1697,0.1872,0.1921,0.2075,0.2079,0.2266,0.2126,0.2372,0.2244,0.2282,0.2287,0.2296,0.2278,0.2074,0.224,0.2515,0.2482,0.2265,0.2259,0.2255,0,0.1298,0.1343,0.1432,0.1457,0.1517,0.1611,0.1669,0.1825,0.1908,0.2126,0.2213,0.2421,0.2488,0.2624,0.2624,0.2525,0.2869,0.2715,0.277,0.2763,0.2732,0.271,0.3047,0.299,0.2989,0.2988,0.2988,0,0.1444,0.1529,0.1507,0.1555,0.1695,0.1711,0.1891,0.1984,0.2126,0.2259,0.237,0.2515,0.2619,0.2777,0.279,0.2946,0.3025,0.2925,0.2897,0.2777,0.2756,0.2754,0.2757,0.2999,0.2996,0.2994,0.2993,0,0.1602,0.1593,0.1686,0.1733,0.176,0.1856,0.1941,0.2065,0.2188,0.2368,0.2435,0.2634,0.2847,0.2955,0.315,0.3142,0.324,0.3309,0.3139,0.3091,0.3074,0.3088,0.3258,0.3226,0.3455,0.3458,0.3459,0,0.1682,0.1734,0.1778,0.1813,0.183,0.1935,0.2009,0.2102,0.2195,0.243,0.2522,0.2782,0.2929,0.3234,0.3341,0.3493,0.337,0.3468,0.3294,0.3201,0.3196,0.2957,0.2898,0.3289,0.329,0.329,0.329,0,0.1791,0.1797,0.1822,0.188,0.1951,0.2022,0.2111,0.2177,0.23,0.243,0.2606,0.2735,0.3065,0.3189,0.3411,0.3481,0.3364,0.3477,0.3465,0.3246,0.2935,0.2841,0.2926,0.3292,0.3292,0.3292,0.3292,0.3292,0.1844,0.1862,0.1863,0.193,0.1992,0.2057,0.2102,0.2177,0.2273,0.2402,0.2583,0.2715,0.2965,0.327,0.3365,0.3496,0.3429,0.3406,0.3474,0.3266,0.315,0.3243,0.3506,0.3507,0.3507,0.3508,0.3509,0,0.1862,0.1856,0.1904,0.1944,0.1985,0.2033,0.2122,0.2133,0.2187,0.2326,0.2438,0.2638,0.2858,0.3084,0.3353,0.3413,0.3257,0.3448,0.3123,0.3101,0.3291,0.3195,0.3302,0.3302,0.3302,0.3302,0.3302,0.3302,0.1869,0.1869,0.1872,0.1899,0.1931,0.1958,0.1989,0.201,0.2068,0.213,0.2193,0.2304,0.2632,0.3103,0.332,0.3361,0.3246,0.3195,0.3233,0.3392,0.3389,0.3386,0.3296,0.3422,0.3423,0.2815,0.2813,0.2811]},{"header":{"parameterUnit":"m.s-1","parameterCategory":2,"la1":30.2991,"la2":30.254,"lo1":-89.0895,"lo2":-89.0444,"dy":0.0017,"dx":0.0017,"nx":28,"ny":28,"refTime":"2025-06-09T03:00:00:Z","depth":"0","parameterNumber":3,"parameterNumberName":"V-component_of_CURRENTS"},"data":[0,0,0,0,0,0,0,0,0,0,0,0,0,0,0,0,0,0,0,0,0,0,0,0,0,0,0,0,0,0,0,0,0,0,0,0,0,0,0,0,0,0,0,0,0,0,0,0,0,0,0,0,0,0,0,0,0,0,-0.0096,-0.0096,0,-0.0032,-0.0031,-0.003,-0.0047,-0.0048,-0.005,-0.0051,0.0013,0.0016,0.0019,0,0,0,0,0,0,0,0,0,0,0,0,0,-0.0067,-0.0068,-0.0096,-0.0096,-0.0095,-0.0032,-0.0031,-0.003,-0.0046,-0.0048,-0.005,-0.0052,0.0012,0.0015,0.0019,0,0,0,0,0,0,0,0,0,0,0,0,0,-0.0046,-0.0068,-0.0096,-0.0098,-0.0098,-0.0032,-0.0031,-0.003,-0.0046,-0.0048,-0.0051,-0.0053,0.001,0.0015,0.002,0.0095,0,0,0.0034,0.0036,0,0,0,0,0,0,0,0,-0.0047,-0.0047,-0.0098,-0.0098,-0.0097,-0.0052,0.0003,0.0011,-0.0045,-0.0062,-0.0051,-0.0054,-0.0009,-0.0003,0.0018,0.0098,0.0101,0.0034,0.0037,0.0039,0.0041,0,0,0,0,0,0,0,-0.0049,-0.0049,-0.0068,-0.0098,-0.0097,-0.0045,-0.0046,0.0005,-0.0021,-0.0061,-0.0063,-0.006,-0.0009,0.0014,0.002,0.0102,0.0034,0.0039,0.0041,0.0043,0.0282,0.0286,0,0,0,0,0,0,-0.0069,-0.0051,-0.007,-0.0066,-0.0081,-0.0045,-0.0045,-0.0062,-0.0022,-0.0019,-0.0058,-0.0061,0.0007,0.0014,0.0022,0.0165,0.0039,0.0044,0.0046,0.0279,0.0283,0.0287,0,0,0,0,0,0,-0.0069,-0.0072,-0.0072,-0.0058,-0.0055,-0.0045,-0.0062,-0.006,-0.0038,-0.002,-0.0017,-0.004,0.0006,0.0015,0.0093,0.0164,0.0046,0.005,0.0275,0.028,0.0285,0.0418,0,0,0,0,0,0,-0.0069,-0.0073,-0.0079,-0.006,-0.0057,-0.0004,-0.006,-0.0057,-0.0035,-0.0038,-0.0003,0.0,0.0004,0.0086,0.0097,0.0169,0.0054,0.027,0.0277,0.0283,0.0409,0.0427,0.0442,0,0,0,0,0,-0.0068,-0.0052,-0.0081,-0.0082,-0.0071,-0.0001,0.0009,0.001,-0.0032,0.0013,0.0027,-0.0001,0.0135,0.0093,0.0106,0.018,0.0267,0.0275,0.0283,0.0401,0.0423,0.0442,0,0,0,0,0,0,-0.0036,-0.0053,-0.0083,-0.0075,-0.0035,-0.0005,0.0042,0.002,0.0066,0.0062,0.0051,0.006,0.0156,0.0152,0.0105,0.0268,0.0195,0.0206,0.0281,0.0301,0.0318,0.0321,0.0058,0,0,0,0,0,-0.0038,-0.0038,-0.0029,-0.0018,0.001,0.0021,0.0047,0.0048,0.0082,0.0098,0.0116,0.0146,0.0203,0.0235,0.0284,0.0378,0.0341,0.0432,0.0449,0.0463,0.0476,0.048,0.0497,0.0313,0.0313,0.0313,0,0,-0.0031,-0.0032,-0.0039,-0.0011,0.0022,0.0103,0.0035,0.0097,0.0154,0.0103,0.0197,0.0211,0.0241,0.0349,0.039,0.0352,0.0498,0.0473,0.0485,0.049,0.049,0.0507,0.0523,0.0318,0.0317,0.0317,0,0,0.0054,0.0001,0.0064,0.0105,0.0161,0.017,0.0187,0.0231,0.0246,0.0332,0.031,0.0362,0.0447,0.0485,0.0511,0.0651,0.0586,0.0667,0.076,0.0765,0.0779,0.0791,0.0763,0.0771,0.0675,0.0675,0.0676,0,0.0073,0.0137,0.0102,0.0202,0.0241,0.0205,0.0307,0.0335,0.0391,0.0421,0.0383,0.0505,0.0517,0.0639,0.0684,0.069,0.0663,0.0679,0.0784,0.0795,0.0805,0.0773,0.078,0.0683,0.0682,0.0681,0.068,0,0.0237,0.0282,0.034,0.0423,0.046,0.0547,0.0563,0.0614,0.06,0.061,0.0709,0.0724,0.0789,0.0806,0.0789,0.0889,0.0836,0.08,0.0725,0.0831,0.0791,0.0796,0.0693,0.0691,0.0688,0.0687,0,0,0.031,0.0427,0.0449,0.0513,0.058,0.0631,0.0727,0.0806,0.0873,0.0893,0.0982,0.1047,0.1012,0.1039,0.1022,0.102,0.1059,0.0947,0.0943,0.0905,0.1046,0.1024,0.1026,0.1035,0.1037,0.1038,0.0986,0,0.0467,0.0659,0.0666,0.0829,0.0929,0.091,0.0999,0.1042,0.1065,0.1145,0.1124,0.1203,0.1113,0.1152,0.1141,0.109,0.1081,0.1075,0.0961,0.0958,0.0914,0.1036,0.0982,0.0934,0.0991,0.0992,0.0992,0,0.0657,0.0748,0.093,0.1026,0.1068,0.1137,0.1238,0.1313,0.1382,0.1404,0.1441,0.1415,0.1442,0.1339,0.1279,0.1276,0.118,0.1109,0.1105,0.1042,0.0948,0.084,0.0941,0.0779,0.1,0.0999,0.0999,0,0.0757,0.093,0.1062,0.1105,0.1217,0.1276,0.1319,0.1394,0.1456,0.1558,0.1612,0.1618,0.1631,0.1525,0.1366,0.1331,0.1268,0.12,0.1085,0.108,0.0993,0.0978,0.0914,0.1159,0.1159,0.1159,0.1159,0,0.0922,0.1031,0.1116,0.1194,0.1326,0.1362,0.149,0.1553,0.1641,0.1727,0.1734,0.1808,0.1676,0.1613,0.1444,0.129,0.1325,0.113,0.1088,0.1039,0.103,0.0849,0.0819,0.1157,0.1158,0.1158,0.1158,0,0.1013,0.1093,0.1241,0.1353,0.1382,0.1465,0.1545,0.1641,0.1729,0.1848,0.1883,0.1944,0.1879,0.1716,0.1557,0.1403,0.1167,0.1177,0.1117,0.107,0.082,0.0803,0.0703,0.0667,0.1059,0.1059,0.1058,0,0.1086,0.1172,0.1306,0.1368,0.1413,0.1514,0.1584,0.1674,0.1756,0.1923,0.1985,0.2005,0.2017,0.1799,0.1546,0.1284,0.114,0.1072,0.101,0.0835,0.0782,0.0715,0.0688,0.093,0.0929,0.0927,0.0926,0,0.1172,0.1207,0.129,0.1415,0.1499,0.1599,0.169,0.1767,0.1888,0.2002,0.2139,0.2177,0.2018,0.178,0.1467,0.1276,0.0987,0.1041,0.0881,0.0721,0.0624,0.0557,0.0908,0.0916,0.0917,0.0918,0.0918,0.0919,0.1192,0.1245,0.1334,0.145,0.1543,0.1664,0.174,0.1843,0.1981,0.214,0.2202,0.2263,0.1956,0.1549,0.1292,0.0831,0.0907,0.0665,0.0666,0.0617,0.0576,0.0907,0.086,0.0861,0.0861,0.0862,0.0862,0,0.1224,0.1266,0.136,0.1495,0.158,0.1642,0.1796,0.1877,0.2022,0.2155,0.226,0.2133,0.1723,0.1319,0.0738,0.047,0.0366,0.0342,0.0216,0.0216,0.0505,0.049,0.0337,0.0337,0.0337,0.0337,0.0337,0.0338,0.1247,0.1312,0.1364,0.1497,0.1574,0.1693,0.1785,0.1925,0.2033,0.2167,0.2191,0.2215,0.1946,0.0978,0.0306,0.0145,-0.0057,-0.0085,-0.0107,0.0047,0.0075,0.0101,0.0075,-0.0163,-0.0164,-0.0456,-0.0458,-0.046]}],[{"header":{"parameterUnit":"m.s-1","parameterCategory":2,"la1":30.2991,"la2":30.254,"lo1":-89.0895,"lo2":-89.0444,"dy":0.0017,"dx":0.0017,"nx":28,"ny":28,"refTime":"2025-06-09T03:00:00:Z","depth":"2","parameterNumber":2,"parameterNumberName":"U-component_of_CURRENTS"},"data":[0,0,0,0,0,0,0,0,0,0,0,0,0,0,0,0,0,0,0,0,0,0,0,0,0,0,0,0,0,0,0,0,0,0,0,0,0,0,0,0,0,0,0,0,0,0,0,0,0,0,0,0,0,0,0,0,0,0,-0.0114,-0.0111,0,0.0133,0.0135,0.0138,0.021,0.021,0.0209,0.0209,0.016,0.0159,0.0159,0,0,0,0,0,0,0,0,0,0,0,0,0,-0.0332,-0.033,-0.0115,-0.0111,-0.0107,0.0133,0.0135,0.0138,0.021,0.021,0.0209,0.0208,0.016,0.0159,0.0159,0,0,0,0,0,0,0,0,0,0,0,0,0,-0.0184,-0.033,-0.0115,-0.0036,-0.0026,0.0132,0.0135,0.0139,0.0211,0.021,0.0209,0.0208,0.0161,0.0159,0.0158,0.017,0,0,0.0155,0.0155,0,0,0,0,0,0,0,0,-0.0193,-0.0177,-0.0052,-0.0041,-0.003,0.0146,0.0042,0.0137,0.0211,0.0113,0.0208,0.0207,0.0133,0.0135,0.0177,0.0168,0.0166,0.0155,0.0154,0.0154,0.0154,0,0,0,0,0,0,0,-0.0204,-0.0186,-0.0024,-0.0047,-0.0034,0.0053,0.007,0.0062,0.0114,0.0121,0.0129,0.0169,0.0136,0.0178,0.0175,0.0165,0.0155,0.0154,0.0153,0.0153,0.0171,0.0172,0,0,0,0,0,0,-0.0228,-0.0197,-0.0032,-0.0016,-0.0107,0.0057,0.0077,0.0085,0.0121,0.013,0.0169,0.0171,0.018,0.0177,0.0174,0.0206,0.0154,0.0153,0.0152,0.017,0.0172,0.0173,0,0,0,0,0,0,-0.0234,-0.0217,-0.0042,-0.0093,-0.0063,0.0061,0.0071,0.009,0.0176,0.0162,0.0164,0.024,0.018,0.0175,0.0161,0.0203,0.0152,0.0151,0.0169,0.0171,0.0172,0.0257,0,0,0,0,0,0,-0.0242,-0.0222,-0.0206,-0.0096,-0.0061,0.0048,0.0073,0.0096,0.0203,0.0209,0.0222,0.0215,0.0178,0.0163,0.016,0.02,0.0151,0.0167,0.017,0.0172,0.0253,0.0261,0.0269,0,0,0,0,0,-0.0251,-0.0177,-0.0208,-0.0186,-0.0052,0.005,0.0075,0.0157,0.0207,0.0234,0.0233,0.0217,0.0175,0.0162,0.0159,0.02,0.0166,0.0169,0.0171,0.0249,0.026,0.0269,0,0,0,0,0,0,-0.0253,-0.016,-0.0191,-0.0098,-0.0054,0.0065,0.0164,0.0192,0.023,0.0237,0.0222,0.0213,0.0211,0.0197,0.0184,0.0211,0.0174,0.0175,0.0234,0.0244,0.0251,0.0332,0.015,0,0,0,0,0,-0.0259,-0.017,-0.0134,-0.0053,-0.0017,0.0067,0.0136,0.0153,0.0205,0.0229,0.023,0.0229,0.022,0.0223,0.0194,0.0219,0.0208,0.0245,0.0253,0.026,0.0324,0.0318,0.0332,0.0181,0.0181,0.0181,0,0,-0.0231,-0.016,-0.0115,-0.0045,0.003,0.0082,0.0109,0.0212,0.0241,0.0208,0.0272,0.0245,0.0226,0.0231,0.0235,0.0229,0.0287,0.0264,0.027,0.0331,0.0322,0.0337,0.035,0.0183,0.0183,0.0182,0,0,-0.0115,-0.0076,0.0011,0.0047,0.0125,0.0155,0.0184,0.026,0.0284,0.0297,0.029,0.0304,0.0289,0.03,0.0301,0.0349,0.0314,0.0333,0.0461,0.0453,0.0466,0.0478,0.0441,0.0449,0.0356,0.0356,0.0357,0,-0.0093,-0.0008,0.0051,0.0123,0.0165,0.0191,0.0232,0.0277,0.0319,0.0362,0.0311,0.0343,0.0335,0.0381,0.0419,0.0374,0.0351,0.0423,0.0466,0.0477,0.0488,0.0448,0.0456,0.0361,0.036,0.036,0.0359,0,0.0053,0.0101,0.0189,0.0254,0.0283,0.0357,0.0359,0.0399,0.0418,0.0458,0.0481,0.043,0.0464,0.0461,0.0474,0.0558,0.0506,0.0457,0.0446,0.0509,0.0461,0.0467,0.0367,0.0366,0.0364,0.0363,0,0,0.016,0.0257,0.0284,0.0275,0.0344,0.0371,0.0441,0.0506,0.0536,0.0567,0.0596,0.0659,0.0657,0.0663,0.0632,0.0673,0.0731,0.0641,0.0638,0.0614,0.0697,0.063,0.0629,0.0682,0.0685,0.0687,0.0618,0,0.0247,0.0346,0.038,0.0437,0.0462,0.0481,0.0514,0.0564,0.0573,0.0596,0.0643,0.0629,0.0717,0.0663,0.0753,0.0718,0.076,0.0754,0.0635,0.0632,0.0574,0.0641,0.0662,0.0602,0.0624,0.0625,0.0625,0,0.0365,0.0401,0.0453,0.0445,0.046,0.0487,0.0504,0.0537,0.0618,0.0613,0.0688,0.0658,0.0781,0.0739,0.0848,0.0836,0.0827,0.0796,0.079,0.0725,0.0582,0.0551,0.0612,0.0636,0.0635,0.0634,0.0633,0,0.0366,0.0449,0.0474,0.0489,0.0494,0.0518,0.054,0.0585,0.0592,0.0627,0.0586,0.07,0.0669,0.0748,0.0818,0.0809,0.0857,0.0789,0.0714,0.0704,0.0707,0.0695,0.0843,0.0843,0.0843,0.0843,0.0843,0,0.0419,0.0436,0.0478,0.0483,0.0478,0.0498,0.0497,0.0525,0.0535,0.0533,0.0605,0.0533,0.0675,0.0714,0.0792,0.0821,0.085,0.0781,0.0709,0.0729,0.072,0.0745,0.0734,0.0841,0.0841,0.0842,0.0842,0,0.0372,0.0427,0.0435,0.046,0.0472,0.0464,0.0477,0.0447,0.0486,0.044,0.0442,0.0463,0.0522,0.0637,0.0693,0.0734,0.076,0.074,0.0757,0.0691,0.0603,0.0598,0.0625,0.0622,0.062,0.0619,0.0617,0,0.033,0.035,0.0406,0.0394,0.0404,0.0417,0.0392,0.043,0.0376,0.0376,0.0305,0.0348,0.0368,0.0469,0.0567,0.0663,0.0694,0.0642,0.0649,0.0667,0.0594,0.0591,0.0588,0.0657,0.0656,0.0656,0.0655,0,0.0203,0.0268,0.0257,0.0289,0.0269,0.0259,0.0234,0.0192,0.0208,0.0199,0.0167,0.02,0.0283,0.0423,0.0535,0.0559,0.0648,0.0618,0.0654,0.0704,0.0692,0.062,0.0618,0.0648,0.0649,0.0649,0.065,0.065,0.0081,0.0064,0.011,0.0126,0.0127,0.01,0.0076,0.005,0.0031,0.0069,0.0077,0.0213,0.0283,0.0494,0.0534,0.0564,0.0544,0.0546,0.0552,0.0558,0.057,0.0554,0.0485,0.0485,0.0485,0.0485,0.0485,0,-0.0119,-0.0079,-0.0062,-0.0057,-0.0058,0.001,-0.0047,-0.0049,-0.0055,0.0073,0.0165,0.0287,0.0425,0.0533,0.0596,0.0555,0.0565,0.0518,0.0594,0.0599,0.0605,0.0623,0.0551,0.0551,0.0551,0.0551,0,0,-0.0242,-0.0269,-0.021,-0.0232,-0.0181,-0.0195,-0.0204,-0.0148,-0.0048,0.0128,0.0314,0.0468,0.0535,0.0589,0.0569,0.0607,0.0588,0.056,0.0507,0.0605,0.0611,0.0616,0.0649,0,0,0,0,0]},{"header":{"parameterUnit":"m.s-1","parameterCategory":2,"la1":30.2991,"la2":30.254,"lo1":-89.0895,"lo2":-89.0444,"dy":0.0017,"dx":0.0017,"nx":28,"ny":28,"refTime":"2025-06-09T03:00:00:Z","depth":"2","parameterNumber":3,"parameterNumberName":"V-component_of_CURRENTS"},"data":[0,0,0,0,0,0,0,0,0,0,0,0,0,0,0,0,0,0,0,0,0,0,0,0,0,0,0,0,0,0,0,0,0,0,0,0,0,0,0,0,0,0,0,0,0,0,0,0,0,0,0,0,0,0,0,0,0,0,-0.0197,-0.0196,0,-0.0183,-0.0182,-0.0182,-0.0186,-0.0186,-0.0186,-0.0187,-0.0164,-0.0163,-0.0162,0,0,0,0,0,0,0,0,0,0,0,0,0,-0.0258,-0.0256,-0.0197,-0.0196,-0.0196,-0.0183,-0.0182,-0.0182,-0.0186,-0.0186,-0.0187,-0.0187,-0.0164,-0.0163,-0.0162,0,0,0,0,0,0,0,0,0,0,0,0,0,-0.0235,-0.0256,-0.0197,-0.0197,-0.0197,-0.0183,-0.0182,-0.0182,-0.0186,-0.0186,-0.0187,-0.0187,-0.0165,-0.0163,-0.0162,-0.0143,0,0,-0.0158,-0.0157,0,0,0,0,0,0,0,0,-0.0237,-0.0233,-0.0197,-0.0197,-0.0197,-0.0187,-0.0196,-0.0169,-0.0185,-0.0189,-0.0187,-0.0187,-0.0171,-0.0169,-0.0164,-0.0142,-0.0141,-0.0157,-0.0157,-0.0156,-0.0156,0,0,0,0,0,0,0,-0.0238,-0.0234,-0.019,-0.0197,-0.0197,-0.0209,-0.0206,-0.0191,-0.0177,-0.0189,-0.0189,-0.0189,-0.0171,-0.0166,-0.0164,-0.014,-0.0158,-0.0156,-0.0155,-0.0155,-0.008,-0.0079,0,0,0,0,0,0,-0.0239,-0.0235,-0.0191,-0.019,-0.0219,-0.0207,-0.0204,-0.0189,-0.0177,-0.0176,-0.0188,-0.0189,-0.0168,-0.0165,-0.0163,-0.0124,-0.0156,-0.0155,-0.0154,-0.0081,-0.0079,-0.0078,0,0,0,0,0,0,-0.024,-0.0234,-0.0191,-0.0214,-0.0209,-0.0205,-0.0189,-0.0189,-0.0176,-0.0177,-0.0175,-0.0175,-0.0168,-0.0165,-0.0138,-0.0124,-0.0154,-0.0153,-0.0082,-0.008,-0.0079,-0.0056,0,0,0,0,0,0,-0.0241,-0.0234,-0.0235,-0.0213,-0.0208,-0.0181,-0.0189,-0.0188,-0.0176,-0.0176,-0.0165,-0.0164,-0.0168,-0.0139,-0.0136,-0.0122,-0.0152,-0.0084,-0.0081,-0.0079,-0.0058,-0.0053,-0.0049,0,0,0,0,0,-0.0243,-0.0224,-0.0234,-0.023,-0.0204,-0.0181,-0.0179,-0.0179,-0.0174,-0.0168,-0.0154,-0.0164,-0.0124,-0.0137,-0.0134,-0.0119,-0.0085,-0.0082,-0.008,-0.006,-0.0054,-0.0049,0,0,0,0,0,0,-0.0258,-0.0223,-0.0233,-0.0208,-0.0202,-0.0182,-0.0166,-0.0169,-0.0152,-0.015,-0.0146,-0.0144,-0.0119,-0.0115,-0.013,-0.009,-0.0107,-0.0103,-0.0093,-0.0087,-0.0083,-0.0084,-0.0151,0,0,0,0,0,-0.0262,-0.0227,-0.0218,-0.0198,-0.0186,-0.0176,-0.0169,-0.0174,-0.0153,-0.0146,-0.0132,-0.0117,-0.0106,-0.0093,-0.0085,-0.0055,-0.0084,-0.0043,-0.0039,-0.0035,-0.0031,-0.0069,-0.0069,-0.007,-0.007,-0.007,0,0,-0.0263,-0.0238,-0.0222,-0.0199,-0.0181,-0.0163,-0.0171,-0.0151,-0.0151,-0.0145,-0.0116,-0.0103,-0.0095,-0.007,-0.0058,-0.0063,-0.005,-0.0032,-0.0029,-0.0027,-0.0066,-0.0067,-0.0067,-0.0068,-0.0068,-0.0068,0,0,-0.0235,-0.0218,-0.0184,-0.0169,-0.0152,-0.0148,-0.014,-0.0118,-0.0123,-0.0105,-0.0098,-0.0077,-0.0048,-0.0043,-0.0038,-0.0002,-0.0031,0.0014,0.0041,0.0004,0.0003,0.0002,-0.0041,-0.0047,0.0021,0.0021,0.0021,0,-0.0244,-0.0201,-0.0177,-0.0143,-0.0145,-0.0135,-0.0129,-0.0117,-0.0097,-0.0082,-0.0096,-0.0067,-0.0045,-0.0035,0.0001,0.0004,-0.0016,0.0017,0.0007,0.0005,0.0003,-0.0041,-0.0047,0.0023,0.0023,0.0023,0.0022,0,-0.0188,-0.0168,-0.0136,-0.0096,-0.0104,-0.008,-0.0085,-0.0065,-0.0067,-0.0051,-0.0049,-0.0056,-0.004,-0.0021,0.0016,0.0028,0.0017,0.0008,-0.0013,0.0004,-0.0042,-0.0049,0.0025,0.0024,0.0024,0.0024,0,0,-0.0189,-0.0112,-0.0107,-0.0107,-0.0085,-0.0088,-0.0069,-0.0051,-0.0043,-0.0032,-0.005,-0.0002,-0.0002,0.0004,0.0011,0.0013,0.0008,0.0037,0.0034,-0.0018,-0.007,-0.0106,-0.0117,0.0003,0.0002,0.0002,-0.0101,0,-0.0164,-0.011,-0.0087,-0.0074,-0.0072,-0.006,-0.0055,-0.0042,-0.0042,-0.0038,-0.0045,-0.0057,-0.0002,-0.0024,-0.0005,0.0008,-0.0006,0.0037,-0.0068,-0.0071,-0.0116,-0.0125,-0.0106,-0.0198,-0.0108,-0.011,-0.0111,0,-0.0149,-0.012,-0.0102,-0.01,-0.0096,-0.008,-0.0099,-0.008,-0.0046,-0.0058,-0.006,-0.0085,-0.0068,-0.0069,-0.0067,-0.0035,-0.0035,-0.0042,-0.0048,-0.0093,-0.012,-0.0197,-0.0214,-0.0122,-0.0122,-0.0121,-0.012,0,-0.0213,-0.0156,-0.0151,-0.014,-0.0113,-0.0105,-0.0076,-0.0059,-0.005,-0.0066,-0.0093,-0.0112,-0.0146,-0.0151,-0.0115,-0.0098,-0.0137,-0.0144,-0.0202,-0.0205,-0.0217,-0.0221,-0.018,-0.018,-0.018,-0.018,-0.0179,0,-0.0227,-0.0229,-0.0162,-0.0151,-0.0143,-0.0131,-0.0118,-0.0088,-0.0084,-0.0066,-0.0094,-0.016,-0.0158,-0.018,-0.0155,-0.0186,-0.0183,-0.0205,-0.0236,-0.0208,-0.0209,-0.016,-0.0156,-0.0183,-0.0183,-0.0182,-0.0181,0,-0.0313,-0.0254,-0.0246,-0.0193,-0.0165,-0.0158,-0.009,-0.0085,-0.0078,-0.0087,-0.0106,-0.0165,-0.0199,-0.0213,-0.0237,-0.0251,-0.0283,-0.03,-0.0266,-0.029,-0.0327,-0.0321,-0.0418,-0.042,-0.0422,-0.0423,-0.0425,0,-0.0348,-0.0343,-0.0271,-0.0239,-0.0195,-0.0153,-0.0122,-0.0075,-0.0072,-0.0096,-0.0118,-0.0181,-0.0242,-0.031,-0.0329,-0.0371,-0.0325,-0.0412,-0.0386,-0.0332,-0.0352,-0.0343,-0.0334,-0.0396,-0.0397,-0.0398,-0.0399,0,-0.0412,-0.0377,-0.0354,-0.0276,-0.0224,-0.0178,-0.0118,-0.0123,-0.0085,-0.012,-0.0172,-0.0235,-0.0305,-0.0363,-0.042,-0.0437,-0.0404,-0.0434,-0.0398,-0.0335,-0.0319,-0.0336,-0.0327,-0.0405,-0.0405,-0.0404,-0.0404,-0.0404,-0.0455,-0.0446,-0.0374,-0.0313,-0.0248,-0.0195,-0.0167,-0.0145,-0.0142,-0.0146,-0.0207,-0.0245,-0.0345,-0.0407,-0.0457,-0.0469,-0.0486,-0.0498,-0.0493,-0.0487,-0.0462,-0.045,-0.0557,-0.0557,-0.0557,-0.0557,-0.0557,0,-0.0496,-0.0445,-0.0397,-0.0317,-0.0274,-0.0197,-0.0161,-0.0163,-0.0169,-0.0135,-0.0169,-0.0259,-0.0348,-0.0375,-0.0422,-0.0528,-0.0493,-0.0524,-0.0454,-0.0449,-0.0444,-0.0412,-0.0497,-0.0496,-0.0496,-0.0496,0,0,-0.0497,-0.0465,-0.0431,-0.0347,-0.0275,-0.0199,-0.0172,-0.0188,-0.0168,-0.0151,-0.0105,-0.0164,-0.0283,-0.0313,-0.0427,-0.0434,-0.0409,-0.0433,-0.0479,-0.038,-0.0373,-0.0438,-0.0386,0,0,0,0,0]}],[{"header":{"parameterUnit":"m.s-1","parameterCategory":2,"la1":30.2991,"la2":30.254,"lo1":-89.0895,"lo2":-89.0444,"dy":0.0017,"dx":0.0017,"nx":28,"ny":28,"refTime":"2025-06-09T03:00:00:Z","depth":"4","parameterNumber":2,"parameterNumberName":"U-component_of_CURRENTS"},"data":[0,0,0,0,0,0,0,0,0,0,0,0,0,0,0,0,0,0,0,0,0,0,0,0,0,0,0,0,0,0,0,0,0,0,0,0,0,0,0,0,0,0,0,0,0,0,0,0,0,0,0,0,0,0,0,0,0,0,-0.0323,-0.0323,0,-0.0339,-0.0339,-0.0339,-0.0341,-0.034,-0.034,-0.034,-0.0314,-0.0313,-0.0312,0,0,0,0,0,0,0,0,0,0,0,0,0,-0.031,-0.031,-0.0323,-0.0323,-0.0324,-0.0339,-0.0339,-0.0339,-0.0341,-0.034,-0.034,-0.034,-0.0314,-0.0313,-0.0312,0,0,0,0,0,0,0,0,0,0,0,0,0,-0.0319,-0.031,-0.0323,-0.0327,-0.0327,-0.0339,-0.0339,-0.0339,-0.0341,-0.034,-0.034,-0.034,-0.0314,-0.0313,-0.0312,-0.031,0,0,-0.031,-0.0309,0,0,0,0,0,0,0,0,-0.0319,-0.032,-0.0326,-0.0326,-0.0327,-0.0338,-0.0325,-0.0328,-0.0341,-0.0335,-0.034,-0.034,-0.0318,-0.0317,-0.032,-0.0309,-0.0308,-0.031,-0.0309,-0.0309,-0.0308,0,0,0,0,0,0,0,-0.0318,-0.0319,-0.0329,-0.0326,-0.0327,-0.0333,-0.0334,-0.0326,-0.0326,-0.0335,-0.0336,-0.0338,-0.0318,-0.0321,-0.032,-0.0308,-0.031,-0.0309,-0.0308,-0.0308,-0.0293,-0.0293,0,0,0,0,0,0,-0.0317,-0.0318,-0.0328,-0.0329,-0.0323,-0.0333,-0.0334,-0.0334,-0.0327,-0.0327,-0.0339,-0.0338,-0.0323,-0.0321,-0.0319,-0.0312,-0.0309,-0.0308,-0.0307,-0.0293,-0.0293,-0.0293,0,0,0,0,0,0,-0.0316,-0.0317,-0.0328,-0.0325,-0.0327,-0.0334,-0.0334,-0.0335,-0.0334,-0.033,-0.0328,-0.0337,-0.0323,-0.032,-0.0305,-0.0311,-0.0307,-0.0307,-0.0292,-0.0293,-0.0293,-0.03,0,0,0,0,0,0,-0.0316,-0.0317,-0.032,-0.0325,-0.0327,-0.0327,-0.0334,-0.0335,-0.0337,-0.0337,-0.0328,-0.0326,-0.0322,-0.0307,-0.0305,-0.0309,-0.0306,-0.0292,-0.0293,-0.0293,-0.03,-0.0301,-0.0301,0,0,0,0,0,-0.0315,-0.0321,-0.032,-0.0322,-0.033,-0.0327,-0.0328,-0.0333,-0.0337,-0.0332,-0.0328,-0.0326,-0.0307,-0.0306,-0.0303,-0.0308,-0.0292,-0.0293,-0.0293,-0.03,-0.0301,-0.0301,0,0,0,0,0,0,-0.0321,-0.0322,-0.0321,-0.0328,-0.0323,-0.0327,-0.0329,-0.0331,-0.0326,-0.0324,-0.0321,-0.0318,-0.0311,-0.0306,-0.0305,-0.0305,-0.0302,-0.0302,-0.0308,-0.0309,-0.031,-0.0303,-0.0305,0,0,0,0,0,-0.0323,-0.0326,-0.0322,-0.0328,-0.0324,-0.0325,-0.0327,-0.0325,-0.0321,-0.032,-0.0314,-0.031,-0.0312,-0.0307,-0.0302,-0.0296,-0.0291,-0.03,-0.0301,-0.0301,-0.0294,-0.0308,-0.031,-0.0294,-0.0294,-0.0294,0,0,-0.0332,-0.033,-0.0335,-0.033,-0.0327,-0.031,-0.0325,-0.0321,-0.0309,-0.0316,-0.0299,-0.0309,-0.0311,-0.0308,-0.0305,-0.0303,-0.0299,-0.0302,-0.0302,-0.0295,-0.0309,-0.0311,-0.0312,-0.0294,-0.0294,-0.0294,0,0,-0.0326,-0.034,-0.0326,-0.0318,-0.0307,-0.0308,-0.0303,-0.0297,-0.0297,-0.0283,-0.0294,-0.0308,-0.0293,-0.0307,-0.0311,-0.0313,-0.0303,-0.0311,-0.0307,-0.0322,-0.0323,-0.0324,-0.0301,-0.03,-0.0311,-0.0311,-0.0311,0,-0.0333,-0.0314,-0.0323,-0.0297,-0.0293,-0.0301,-0.0277,-0.0277,-0.0268,-0.0273,-0.0273,-0.0287,-0.0296,-0.0309,-0.0315,-0.0316,-0.0305,-0.0305,-0.0323,-0.0324,-0.0325,-0.0301,-0.03,-0.0312,-0.0312,-0.0312,-0.0312,0,-0.0299,-0.0288,-0.0281,-0.0252,-0.0247,-0.0236,-0.023,-0.0232,-0.0238,-0.024,-0.0252,-0.027,-0.0281,-0.0296,-0.0305,-0.0323,-0.0306,-0.0324,-0.0321,-0.0327,-0.0301,-0.03,-0.0312,-0.0312,-0.0312,-0.0312,0,0,-0.031,-0.0265,-0.0264,-0.0249,-0.0225,-0.0225,-0.0208,-0.0206,-0.0208,-0.0213,-0.0217,-0.0247,-0.0267,-0.0274,-0.0298,-0.0318,-0.0324,-0.0322,-0.0323,-0.0297,-0.0322,-0.0254,-0.0246,-0.0345,-0.0346,-0.0346,-0.0293,0,-0.0281,-0.0233,-0.0216,-0.0189,-0.017,-0.0177,-0.0163,-0.0167,-0.0176,-0.0182,-0.0219,-0.0227,-0.0253,-0.0268,-0.0292,-0.0319,-0.0323,-0.0334,-0.0319,-0.0318,-0.0258,-0.0244,-0.0347,-0.0292,-0.0292,-0.0291,-0.0291,0,-0.0251,-0.0226,-0.0184,-0.0166,-0.0159,-0.0146,-0.0156,-0.0144,-0.0156,-0.0159,-0.018,-0.0196,-0.0226,-0.0251,-0.0282,-0.0284,-0.0297,-0.0316,-0.0315,-0.0248,-0.0249,-0.0289,-0.0289,-0.0289,-0.0289,-0.0289,-0.029,0,-0.0264,-0.0216,-0.019,-0.0181,-0.0149,-0.0149,-0.0146,-0.0148,-0.0141,-0.0151,-0.0145,-0.0174,-0.0183,-0.0217,-0.0247,-0.0264,-0.0269,-0.03,-0.0242,-0.0236,-0.0311,-0.0311,-0.0313,-0.0313,-0.0313,-0.0313,-0.0313,0,-0.0251,-0.0234,-0.02,-0.0191,-0.0179,-0.0158,-0.0153,-0.0153,-0.0139,-0.0126,-0.0138,-0.0127,-0.0178,-0.0184,-0.0222,-0.0209,-0.0243,-0.0225,-0.022,-0.0312,-0.0312,-0.0309,-0.0309,-0.0311,-0.0312,-0.0312,-0.0312,0,-0.0264,-0.0234,-0.0208,-0.0182,-0.0183,-0.0179,-0.0159,-0.0151,-0.0131,-0.0113,-0.011,-0.009,-0.0079,-0.0109,-0.0146,-0.0157,-0.0173,-0.016,-0.0217,-0.0219,-0.0133,-0.0134,-0.0084,-0.0082,-0.0079,-0.0077,-0.0076,0,-0.0261,-0.0249,-0.0223,-0.0216,-0.0205,-0.0197,-0.0189,-0.0161,-0.014,-0.0088,-0.0073,-0.0039,-0.003,-0.0008,-0.005,-0.0069,-0.0086,-0.0079,-0.0141,-0.011,-0.0111,-0.0116,-0.012,-0.0072,-0.0071,-0.0071,-0.007,0,-0.0266,-0.0256,-0.0237,-0.0224,-0.0214,-0.0197,-0.018,-0.0156,-0.0109,-0.0097,-0.0023,0.0003,0.004,0.0033,0.0039,0.0005,-0.0082,-0.0055,-0.0061,-0.0119,-0.0094,-0.0099,-0.0106,-0.0062,-0.0063,-0.0064,-0.0064,0,-0.0277,-0.0261,-0.0238,-0.0223,-0.0212,-0.0182,-0.0175,-0.0127,-0.0093,-0.0028,-0.0005,0.0033,0.0049,0.0075,0.0063,0.0064,0.0046,0.0019,0.0008,-0.0001,-0.0001,0.0041,0.0134,0,0,0,0,0,-0.0284,-0.0255,-0.0243,-0.0201,-0.019,-0.0179,-0.0157,-0.0139,-0.0096,-0.0038,-0.0013,0.0023,0.0067,0.0084,0.0098,0.0086,0.0031,0.0102,-0.0011,-0.0017,-0.0026,-0.0035,0,0,0,0,0,0,-0.0281,-0.026,-0.0234,-0.0189,-0.0163,-0.0135,-0.0117,-0.0091,-0.0051,-0.0017,0.0005,0.0029,0.0061,0.006,0.0101,0.0103,0.0034,0.0119,0.012,-0.0011,-0.002,-0.0027,-0.004,0,0,0,0,0]},{"header":{"parameterUnit":"m.s-1","parameterCategory":2,"la1":30.2991,"la2":30.254,"lo1":-89.0895,"lo2":-89.0444,"dy":0.0017,"dx":0.0017,"nx":28,"ny":28,"refTime":"2025-06-09T03:00:00:Z","depth":"4","parameterNumber":3,"parameterNumberName":"V-component_of_CURRENTS"},"data":[0,0,0,0,0,0,0,0,0,0,0,0,0,0,0,0,0,0,0,0,0,0,0,0,0,0,0,0,0,0,0,0,0,0,0,0,0,0,0,0,0,0,0,0,0,0,0,0,0,0,0,0,0,0,0,0,0,0,-0.0014,-0.0014,0,-0.0049,-0.005,-0.005,-0.0004,-0.0003,-0.0001,0.0001,-0.0041,-0.0044,-0.0047,0,0,0,0,0,0,0,0,0,0,0,0,0,-0.0025,-0.0025,-0.0014,-0.0014,-0.0014,-0.0049,-0.005,-0.0051,-0.0005,-0.0002,-0.0,0.0002,-0.004,-0.0043,-0.0047,0,0,0,0,0,0,0,0,0,0,0,0,0,-0.0039,-0.0025,-0.0014,0.0007,0.0008,-0.0049,-0.005,-0.0051,-0.0005,-0.0002,0.0001,0.0003,-0.0039,-0.0043,-0.0047,-0.0133,0,0,-0.0061,-0.0063,0,0,0,0,0,0,0,0,-0.0038,-0.0039,0.0004,0.0005,0.0007,-0.0017,-0.0069,-0.0078,-0.0006,-0.0003,0.0001,0.0005,-0.0034,-0.0038,-0.0056,-0.0135,-0.0137,-0.0061,-0.0064,-0.0066,-0.0067,0,0,0,0,0,0,0,-0.0037,-0.0038,-0.0031,0.0004,0.0005,-0.0023,-0.0021,-0.0071,-0.0037,-0.0003,0.0001,0.0001,-0.0033,-0.0052,-0.0056,-0.0137,-0.0061,-0.0065,-0.0068,-0.0069,-0.0291,-0.0294,0,0,0,0,0,0,-0.0024,-0.0036,-0.003,-0.0032,-0.0005,-0.0024,-0.0022,-0.0015,-0.0036,-0.0036,-0.0002,0.0003,-0.0045,-0.0051,-0.0057,-0.0169,-0.0066,-0.007,-0.0072,-0.0288,-0.0292,-0.0295,0,0,0,0,0,0,-0.0024,-0.0023,-0.0028,-0.0033,-0.0035,-0.0026,-0.0019,-0.0017,-0.0024,-0.0034,-0.0034,-0.0008,-0.0043,-0.0051,-0.0118,-0.0169,-0.0072,-0.0076,-0.0284,-0.0289,-0.0293,-0.0385,0,0,0,0,0,0,-0.0024,-0.0022,-0.0023,-0.0032,-0.0034,-0.0082,-0.0021,-0.0019,-0.0027,-0.0021,-0.0041,-0.0042,-0.0042,-0.0112,-0.0123,-0.0173,-0.0079,-0.028,-0.0286,-0.0292,-0.0378,-0.0393,-0.0405,0,0,0,0,0,-0.0024,-0.0045,-0.0023,-0.0023,-0.0032,-0.0084,-0.009,-0.0075,-0.003,-0.0064,-0.0071,-0.0041,-0.0157,-0.0119,-0.0131,-0.0183,-0.0277,-0.0284,-0.0291,-0.0372,-0.039,-0.0405,0,0,0,0,0,0,-0.0062,-0.0042,-0.0018,-0.0033,-0.006,-0.0075,-0.0103,-0.0083,-0.0115,-0.0105,-0.0092,-0.0098,-0.0176,-0.0176,-0.0133,-0.0267,-0.021,-0.022,-0.0267,-0.0284,-0.0297,-0.027,-0.0083,0,0,0,0,0,-0.0067,-0.0069,-0.0071,-0.0088,-0.0101,-0.01,-0.0116,-0.0111,-0.0133,-0.0141,-0.0158,-0.018,-0.0223,-0.0245,-0.0291,-0.0371,-0.0337,-0.0411,-0.0424,-0.0435,-0.0424,-0.0429,-0.044,-0.0319,-0.0319,-0.0319,0,0,-0.0085,-0.0077,-0.0076,-0.0096,-0.011,-0.0154,-0.0104,-0.0146,-0.0179,-0.0147,-0.0214,-0.0237,-0.0257,-0.0344,-0.0378,-0.0344,-0.0457,-0.0445,-0.0454,-0.0435,-0.0437,-0.0448,-0.0458,-0.0324,-0.0323,-0.0322,0,0,-0.0144,-0.0119,-0.0148,-0.0171,-0.0198,-0.0207,-0.0216,-0.0247,-0.0256,-0.0337,-0.0311,-0.0361,-0.0441,-0.0457,-0.0473,-0.0592,-0.0532,-0.061,-0.0653,-0.066,-0.0668,-0.0675,-0.0655,-0.0659,-0.0611,-0.0611,-0.0612,0,-0.0169,-0.0185,-0.0175,-0.0219,-0.0229,-0.0227,-0.027,-0.0307,-0.0358,-0.0369,-0.0374,-0.0467,-0.0495,-0.0551,-0.0598,-0.062,-0.0597,-0.0586,-0.0673,-0.0679,-0.0685,-0.0662,-0.0665,-0.0617,-0.0616,-0.0616,-0.0615,0,-0.0252,-0.0262,-0.0292,-0.0322,-0.035,-0.0393,-0.0419,-0.0461,-0.0472,-0.0494,-0.0567,-0.0615,-0.0649,-0.0686,-0.0685,-0.0742,-0.0704,-0.069,-0.062,-0.0702,-0.0674,-0.0676,-0.0624,-0.0622,-0.0621,-0.062,0,0,-0.0316,-0.0335,-0.035,-0.0347,-0.0392,-0.042,-0.0486,-0.053,-0.0544,-0.063,-0.0654,-0.076,-0.0754,-0.077,-0.0774,-0.0794,-0.0837,-0.0763,-0.0761,-0.0722,-0.0826,-0.0764,-0.0759,-0.083,-0.0831,-0.0832,-0.0791,0,-0.038,-0.0436,-0.0442,-0.0496,-0.0511,-0.0516,-0.0563,-0.0603,-0.0643,-0.0685,-0.0726,-0.0773,-0.0793,-0.0804,-0.0836,-0.0829,-0.0845,-0.0847,-0.077,-0.0767,-0.0684,-0.0761,-0.0835,-0.0792,-0.0793,-0.0793,-0.0793,0,-0.0459,-0.0471,-0.0517,-0.0511,-0.0522,-0.0567,-0.0589,-0.0637,-0.0692,-0.0715,-0.0764,-0.0784,-0.0833,-0.0838,-0.0864,-0.0858,-0.0853,-0.085,-0.0848,-0.0751,-0.0709,-0.0695,-0.0796,-0.0795,-0.0795,-0.0795,-0.0795,0,-0.047,-0.0518,-0.0533,-0.0541,-0.0562,-0.0582,-0.0605,-0.0651,-0.0672,-0.0727,-0.0741,-0.0796,-0.0812,-0.0833,-0.0845,-0.085,-0.0852,-0.0851,-0.0787,-0.0781,-0.0802,-0.0794,-0.0868,-0.0868,-0.0868,-0.0868,-0.0868,0,-0.0505,-0.0521,-0.0537,-0.0547,-0.0565,-0.0582,-0.0616,-0.0642,-0.068,-0.07,-0.075,-0.076,-0.0813,-0.0823,-0.0837,-0.0811,-0.0843,-0.0796,-0.0774,-0.0845,-0.0843,-0.0803,-0.0796,-0.0867,-0.0867,-0.0867,-0.0867,0,-0.05,-0.0519,-0.0531,-0.0555,-0.0566,-0.0582,-0.0614,-0.0632,-0.0664,-0.0688,-0.07,-0.0735,-0.0735,-0.0766,-0.0781,-0.0779,-0.0772,-0.0752,-0.0809,-0.0789,-0.0696,-0.0695,-0.0677,-0.0674,-0.0672,-0.0671,-0.0669,0,-0.0489,-0.0495,-0.0528,-0.054,-0.0555,-0.058,-0.0591,-0.0626,-0.0639,-0.0663,-0.0664,-0.0674,-0.0693,-0.066,-0.0696,-0.0695,-0.0698,-0.0688,-0.0723,-0.0701,-0.0681,-0.0683,-0.0684,-0.0666,-0.0666,-0.0665,-0.0665,0,-0.0456,-0.0478,-0.0488,-0.0518,-0.054,-0.0558,-0.0581,-0.0583,-0.061,-0.0631,-0.0617,-0.062,-0.0606,-0.0619,-0.0612,-0.0621,-0.0698,-0.0667,-0.0672,-0.0705,-0.0687,-0.067,-0.0674,-0.0658,-0.0659,-0.0659,-0.066,0,-0.0429,-0.0435,-0.0463,-0.0488,-0.0515,-0.0539,-0.0553,-0.0554,-0.0567,-0.0586,-0.0573,-0.0581,-0.0594,-0.0576,-0.0576,-0.0572,-0.0576,-0.0583,-0.0592,-0.06,-0.0597,-0.0565,-0.0481,0,0,0,0,0,-0.0398,-0.0415,-0.0429,-0.0469,-0.0496,-0.0524,-0.0542,-0.0552,-0.0567,-0.0543,-0.056,-0.0544,-0.0533,-0.0535,-0.0516,-0.0548,-0.0585,-0.0525,-0.06,-0.0619,-0.0627,-0.0632,0,0,0,0,0,0,-0.0386,-0.0402,-0.042,-0.0449,-0.0474,-0.0509,-0.0528,-0.0539,-0.0525,-0.0533,-0.0523,-0.0527,-0.0518,-0.0541,-0.0512,-0.0513,-0.0554,-0.0527,-0.0526,-0.0614,-0.0622,-0.0628,-0.0636,0,0,0,0,0]}]]